[[{"header":{"parameterUnit":"m.s-1","parameterCategory":1,"la1":30.2992,"la2":30.254,"lo1":-89.0895,"lo2":-89.0443,"dy":0.0025,"dx":0.0025,"nx":19,"ny":19,"refTime":"2026-04-11T21:00:00:Z","depth":0,"parameterNumber":2,"parameterNumberName":"U-component_of_WINDS"},"data":[0,0,0,-4.3061,-4.3063,-4.3133,-4.3134,-4.3261,-4.3262,0,0,0,0,0,0,0,0,0,0,0,-4.3062,-4.3064,-4.3061,-4.3063,-4.3133,-4.3134,-4.326,-4.3262,0,0,0,0,0,0,0,0,0,0,0,-4.3062,-4.3064,-4.3066,-4.3064,-4.3133,-4.3134,-4.326,-4.3194,0,0,0,0,0,0,0,0,0,0,-4.3119,-4.3142,-4.3063,-4.3066,-4.3064,-4.3133,-4.3134,-4.319,-4.3198,-4.3245,0,-4.3292,0,-4.3279,-4.3273,-4.3274,0,0,0,-4.3047,-4.3136,-4.3134,-4.3066,-4.3065,-4.3133,-4.3097,-4.3194,-4.3203,-4.3256,-4.3293,-4.3297,-4.3281,-4.3274,-4.3275,-4.36,-4.3602,0,0,-4.3043,-4.3087,-4.3128,-4.3142,-4.3133,-4.3095,-4.3099,-4.3199,-4.3243,-4.3294,-4.3299,-4.3284,-4.3275,-4.3276,-4.3598,-4.3601,0,0,0,-4.3043,-4.3085,-4.308,-4.3137,-4.3147,-4.3097,-4.3103,-4.3239,-4.3233,-4.33,-4.3285,-4.3276,-4.3278,-4.3595,-4.3599,-4.3756,0,0,0,-4.304,-4.3085,-4.308,-4.3108,-4.3146,-4.3194,-4.3141,-4.3227,-4.3236,-4.3284,-4.3276,-4.328,-4.3593,-4.3597,-4.3746,-4.3823,0,0,0,-4.305,-4.3086,-4.3104,-4.311,-4.3142,-4.3191,-4.3191,-4.3228,-4.3228,-4.3274,-4.328,-4.3591,-4.3596,-4.3737,-4.3808,-4.3922,0,0,0,-4.3074,-4.3242,-4.3107,-4.3288,-4.3141,-4.3288,-4.319,-4.3296,-4.3354,-4.3277,-4.3593,-4.3599,-4.3735,-4.3799,-4.3913,-4.4027,-4.4078,0,0,-4.331,-4.3272,-4.3375,-4.3256,-4.3438,-4.3273,-4.3478,-4.3489,-4.3453,-4.3553,-4.356,-4.3749,-4.3807,-4.392,-4.4349,-4.439,0,0,0,-4.3464,-4.3539,-4.3578,-4.3635,-4.3648,-4.3666,-4.364,-4.3645,-4.3728,-4.3513,-4.382,-4.3853,-4.3917,-4.3969,-4.4004,-4.4057,-4.3624,-4.3624,-4.3623,-4.3862,-4.3807,-4.3974,-4.3929,-4.3986,-4.3959,-4.4001,-4.4002,-4.3929,-4.4003,-4.4032,-4.4299,-4.4361,-4.4387,-4.4443,-4.4087,-4.4088,-4.4088,-4.4088,-4.4203,-4.43,-4.4201,-4.4328,-4.427,-4.4375,-4.4357,-4.4302,-4.4393,-4.4271,-4.4325,-4.4198,-4.4434,-4.448,-4.41,-4.4098,-4.4096,-4.4095,-4.4094,-4.4457,-4.4494,-4.4497,-4.4576,-4.4643,-4.459,-4.4682,-4.4625,-4.4572,-4.4626,-4.4652,-4.4649,-4.464,-4.4642,-4.4643,-4.4644,-4.4645,-4.4645,-4.4646,-4.472,-4.4718,-4.4802,-4.4832,-4.4862,-4.4894,-4.4871,-4.4899,-4.4915,-4.4867,-4.4867,-4.4788,-4.4467,-4.4388,-4.466,-4.4658,-4.4656,-4.4654,-4.4653,-4.5087,-4.4995,-4.5126,-4.5157,-4.5187,-4.5258,-4.5184,-4.5247,-4.5262,-4.531,-4.522,-4.4991,-4.4948,-4.492,-4.4854,-4.523,-4.523,-4.523,-4.523,-4.5302,-4.5274,-4.5396,-4.5449,-4.5494,-4.5441,-4.5592,-4.5576,-4.5545,-4.5551,-4.5488,-4.5396,-4.537,-4.5342,-4.5304,-4.5242,-4.5709,-4.5709,-4.571,-4.5525,-4.5499,-4.5638,-4.5607,-4.5626,-4.5645,-4.5786,-4.5851,-4.5796,-4.5728,-4.5555,-4.5535,-4.5385,-4.5339,-4.5267,-4.5211,-4.5095,0,0]},{"header":{"parameterUnit":"m.s-1","parameterCategory":1,"la1":30.2992,"la2":30.254,"lo1":-89.0895,"lo2":-89.0443,"dy":0.0025,"dx":0.0025,"nx":19,"ny":19,"refTime":"2026-04-11T21:00:00:Z","depth":0,"parameterNumber":3,"parameterNumberName":"V-component_of_WINDS"},"data":[0,0,0,0.4157,0.4157,0.414,0.4139,0.4123,0.4123,0,0,0,0,0,0,0,0,0,0,0,0.4165,0.4165,0.4157,0.4157,0.414,0.4139,0.4123,0.4123,0,0,0,0,0,0,0,0,0,0,0,0.4165,0.4165,0.4165,0.4156,0.414,0.4139,0.4123,0.4134,0,0,0,0,0,0,0,0,0,0,0.415,0.416,0.4165,0.4165,0.4156,0.414,0.4139,0.4135,0.4133,0.4133,0,0.4133,0,0.4128,0.4122,0.4122,0,0,0,0.4154,0.4161,0.4154,0.4165,0.4156,0.414,0.4147,0.4134,0.4133,0.4131,0.4133,0.4132,0.4128,0.4122,0.4122,0.4127,0.4127,0,0,0.4155,0.4163,0.4154,0.4153,0.4156,0.4147,0.4146,0.4133,0.4135,0.4133,0.4132,0.4127,0.4122,0.4122,0.4127,0.4127,0,0,0,0.4159,0.4164,0.4157,0.4154,0.415,0.4147,0.4146,0.4135,0.4133,0.4131,0.4127,0.4122,0.4122,0.4127,0.4127,0.4141,0,0,0,0.416,0.4166,0.4158,0.4162,0.4151,0.4143,0.4148,0.4134,0.4132,0.4127,0.4122,0.4122,0.4126,0.4127,0.414,0.4146,0,0,0,0.4165,0.4167,0.4165,0.4163,0.4156,0.4143,0.4139,0.4133,0.4129,0.4122,0.4122,0.4126,0.4127,0.414,0.4145,0.415,0,0,0,0.4172,0.4178,0.4166,0.417,0.4156,0.4151,0.4139,0.4135,0.4131,0.4122,0.4126,0.4127,0.4139,0.4144,0.415,0.4156,0.416,0,0,0.4183,0.4179,0.4181,0.417,0.417,0.4153,0.4155,0.4143,0.4135,0.413,0.413,0.414,0.4145,0.415,0.4175,0.4178,0,0,0,0.4188,0.4189,0.4187,0.4184,0.4175,0.4169,0.4156,0.4152,0.4147,0.4134,0.4143,0.4146,0.4148,0.4151,0.4154,0.4156,0.4128,0.4128,0.4128,0.4214,0.4204,0.4207,0.4196,0.4192,0.418,0.4176,0.4168,0.4159,0.4161,0.4159,0.4176,0.418,0.4181,0.4183,0.4162,0.4162,0.4162,0.4162,0.423,0.4231,0.4219,0.4218,0.4207,0.4206,0.4194,0.4188,0.4186,0.4176,0.4178,0.4169,0.4185,0.4186,0.4163,0.4163,0.4163,0.4163,0.4163,0.4247,0.4245,0.4241,0.4235,0.4232,0.422,0.4219,0.4209,0.42,0.4202,0.4199,0.4199,0.4198,0.4201,0.4201,0.4201,0.4202,0.4202,0.4202,0.4266,0.426,0.426,0.4252,0.4249,0.4244,0.4232,0.4229,0.4223,0.4216,0.4216,0.4207,0.4188,0.4184,0.4202,0.4202,0.4202,0.4202,0.4202,0.4286,0.428,0.428,0.4277,0.4268,0.4266,0.4254,0.4249,0.4245,0.4244,0.4235,0.4222,0.4217,0.4215,0.4212,0.4237,0.4237,0.4237,0.4237,0.43,0.4297,0.4295,0.4291,0.4286,0.4276,0.4277,0.4269,0.4258,0.4256,0.4251,0.4245,0.4243,0.4239,0.4237,0.4233,0.4263,0.4263,0.4263,0.4312,0.4308,0.4311,0.4301,0.4293,0.4287,0.4288,0.4285,0.4272,0.4264,0.4253,0.4252,0.4243,0.424,0.4232,0.4228,0.4221,0,0]}]]